Year,Month,Day,Hour,Minute,Value (Times are PST for temperature in C)
2007,07,12,00,00,23.80
2007,07,12,00,01,23.90
2007,07,12,00,02,24.10
2007,07,12,00,03,24.10
2007,07,12,00,04,24.10
2007,07,12,00,05,24.10
2007,07,12,00,06,24.10
2007,07,12,00,07,24.10
2007,07,12,00,08,24.10
2007,07,12,00,09,24.10
2007,07,12,00,10,24.00
2007,07,12,00,11,23.90
2007,07,12,00,12,23.80
2007,07,12,00,13,23.80
2007,07,12,00,14,23.70
2007,07,12,00,15,23.70
2007,07,12,00,16,23.60
2007,07,12,00,17,23.40
2007,07,12,00,18,23.40
2007,07,12,00,19,23.30
2007,07,12,00,20,23.30
2007,07,12,00,21,23.20
2007,07,12,00,22,23.10
2007,07,12,00,23,23.10
2007,07,12,00,24,23.10
2007,07,12,00,25,22.90
2007,07,12,00,26,22.90
2007,07,12,00,27,22.90
2007,07,12,00,28,22.80
2007,07,12,00,29,22.80
2007,07,12,00,30,22.80
2007,07,12,00,31,22.70
2007,07,12,00,32,22.70
2007,07,12,00,33,22.70
2007,07,12,00,34,22.60
2007,07,12,00,35,22.60
2007,07,12,00,36,22.50
2007,07,12,00,37,22.50
2007,07,12,00,38,22.50
2007,07,12,00,39,22.40
2007,07,12,00,40,22.40
2007,07,12,00,41,22.40
2007,07,12,00,42,22.30
2007,07,12,00,43,22.30
2007,07,12,00,44,22.30
2007,07,12,00,45,22.20
2007,07,12,00,46,22.20
2007,07,12,00,47,22.10
2007,07,12,00,48,22.10
2007,07,12,00,49,22.10
2007,07,12,00,50,22.00
2007,07,12,00,51,22.00
2007,07,12,00,52,21.90
2007,07,12,00,53,21.80
2007,07,12,00,54,21.80
2007,07,12,00,55,21.70
2007,07,12,00,56,21.70
2007,07,12,00,57,21.60
2007,07,12,00,58,21.60
2007,07,12,00,59,21.60
2007,07,12,01,00,21.60
2007,07,12,01,01,21.60
2007,07,12,01,02,21.40
2007,07,12,01,03,21.40
2007,07,12,01,04,21.40
2007,07,12,01,05,21.40
2007,07,12,01,06,21.40
2007,07,12,01,07,21.30
2007,07,12,01,08,21.30
2007,07,12,01,09,21.30
2007,07,12,01,10,21.30
2007,07,12,01,11,21.30
2007,07,12,01,12,21.30
2007,07,12,01,13,21.30
2007,07,12,01,14,21.30
2007,07,12,01,15,21.40
2007,07,12,01,16,21.40
2007,07,12,01,17,21.30
2007,07,12,01,18,21.30
2007,07,12,01,19,21.30
2007,07,12,01,20,21.10
2007,07,12,01,21,21.00
2007,07,12,01,22,21.00
2007,07,12,01,23,20.90
2007,07,12,01,24,20.90
2007,07,12,01,25,20.80
2007,07,12,01,26,20.70
2007,07,12,01,27,20.70
2007,07,12,01,28,20.60
2007,07,12,01,29,20.60
2007,07,12,01,30,20.50
2007,07,12,01,31,20.50
2007,07,12,01,32,20.50
2007,07,12,01,33,20.40
2007,07,12,01,34,20.40
2007,07,12,01,35,20.30
2007,07,12,01,36,20.30
2007,07,12,01,37,20.30
2007,07,12,01,38,20.20
2007,07,12,01,39,20.20
2007,07,12,01,40,20.20
2007,07,12,01,41,20.20
2007,07,12,01,42,20.20
2007,07,12,01,43,20.20
2007,07,12,01,44,20.20
2007,07,12,01,45,20.20
2007,07,12,01,46,20.20
2007,07,12,01,47,20.20
2007,07,12,01,48,20.20
2007,07,12,01,49,20.20
2007,07,12,01,50,20.20
2007,07,12,01,51,20.10
2007,07,12,01,52,20.10
2007,07,12,01,53,20.10
2007,07,12,01,54,20.10
2007,07,12,01,55,20.10
2007,07,12,01,56,20.10
2007,07,12,01,57,20.10
2007,07,12,01,58,20.00
2007,07,12,01,59,19.90
2007,07,12,02,00,19.90
2007,07,12,02,01,19.90
2007,07,12,02,02,19.90
2007,07,12,02,03,19.90
2007,07,12,02,04,19.90
2007,07,12,02,05,19.90
2007,07,12,02,06,19.80
2007,07,12,02,07,19.80
2007,07,12,02,08,19.80
2007,07,12,02,09,19.80
2007,07,12,02,10,19.70
2007,07,12,02,11,19.70
2007,07,12,02,12,19.70
2007,07,12,02,13,19.60
2007,07,12,02,14,19.60
2007,07,12,02,15,19.60
2007,07,12,02,16,19.60
2007,07,12,02,17,19.50
2007,07,12,02,18,19.50
2007,07,12,02,19,19.50
2007,07,12,02,20,19.50
2007,07,12,02,21,19.40
2007,07,12,02,22,19.40
2007,07,12,02,23,19.40
2007,07,12,02,24,19.30
2007,07,12,02,25,19.30
2007,07,12,02,26,19.30
2007,07,12,02,27,19.20
2007,07,12,02,28,19.20
2007,07,12,02,29,19.20
2007,07,12,02,30,19.10
2007,07,12,02,31,19.10
2007,07,12,02,32,19.10
2007,07,12,02,33,19.10
2007,07,12,02,34,19.10
2007,07,12,02,35,19.10
2007,07,12,02,36,19.10
2007,07,12,02,37,19.10
2007,07,12,02,38,19.10
2007,07,12,02,39,19.00
2007,07,12,02,40,18.90
2007,07,12,02,41,18.90
2007,07,12,02,42,18.90
2007,07,12,02,43,18.90
2007,07,12,02,44,18.90
2007,07,12,02,45,18.90
2007,07,12,02,46,18.90
2007,07,12,02,47,18.90
2007,07,12,02,48,18.90
2007,07,12,02,49,18.90
2007,07,12,02,50,18.90
2007,07,12,02,51,18.90
2007,07,12,02,52,18.90
2007,07,12,02,53,18.90
2007,07,12,02,54,18.90
2007,07,12,02,55,18.90
2007,07,12,02,56,18.90
2007,07,12,02,57,18.90
2007,07,12,02,58,18.90
2007,07,12,02,59,19.00
2007,07,12,03,00,19.10
2007,07,12,03,01,19.10
2007,07,12,03,02,19.10
2007,07,12,03,03,19.10
2007,07,12,03,04,19.10
2007,07,12,03,05,19.10
2007,07,12,03,06,19.10
2007,07,12,03,07,19.10
2007,07,12,03,08,19.10
2007,07,12,03,09,19.00
2007,07,12,03,10,18.90
2007,07,12,03,11,18.90
2007,07,12,03,12,18.90
2007,07,12,03,13,18.90
2007,07,12,03,14,18.80
2007,07,12,03,15,18.80
2007,07,12,03,16,18.70
2007,07,12,03,17,18.70
2007,07,12,03,18,18.60
2007,07,12,03,19,18.60
2007,07,12,03,20,18.60
2007,07,12,03,21,18.60
2007,07,12,03,22,18.50
2007,07,12,03,23,18.50
2007,07,12,03,24,18.50
2007,07,12,03,25,18.40
2007,07,12,03,26,18.40
2007,07,12,03,27,18.40
2007,07,12,03,28,18.40
2007,07,12,03,29,18.30
2007,07,12,03,30,18.30
2007,07,12,03,31,18.30
2007,07,12,03,32,18.30
2007,07,12,03,33,18.30
2007,07,12,03,34,18.20
2007,07,12,03,35,18.20
2007,07,12,03,36,18.20
2007,07,12,03,37,18.20
2007,07,12,03,38,18.20
2007,07,12,03,39,18.20
2007,07,12,03,40,18.10
2007,07,12,03,41,18.10
2007,07,12,03,42,18.10
2007,07,12,03,43,18.10
2007,07,12,03,44,18.10
2007,07,12,03,45,18.10
2007,07,12,03,46,18.10
2007,07,12,03,47,18.10
2007,07,12,03,48,18.10
2007,07,12,03,49,18.20
2007,07,12,03,50,18.20
2007,07,12,03,51,18.20
2007,07,12,03,52,18.20
2007,07,12,03,53,18.20
2007,07,12,03,54,18.20
2007,07,12,03,55,18.10
2007,07,12,03,56,17.80
2007,07,12,03,57,17.50
2007,07,12,03,58,17.30
2007,07,12,03,59,17.10
2007,07,12,04,00,17.00
2007,07,12,04,01,17.00
2007,07,12,04,02,16.90
2007,07,12,04,03,16.70
2007,07,12,04,04,16.40
2007,07,12,04,05,16.40
2007,07,12,04,06,16.30
2007,07,12,04,07,16.20
2007,07,12,04,08,16.20
2007,07,12,04,09,16.20
2007,07,12,04,10,16.20
2007,07,12,04,11,16.20
2007,07,12,04,12,16.20
2007,07,12,04,13,16.30
2007,07,12,04,14,16.40
2007,07,12,04,15,16.50
2007,07,12,04,16,16.70
2007,07,12,04,17,16.70
2007,07,12,04,18,16.80
2007,07,12,04,19,16.90
2007,07,12,04,20,16.90
2007,07,12,04,21,17.00
2007,07,12,04,22,17.10
2007,07,12,04,23,17.10
2007,07,12,04,24,17.20
2007,07,12,04,25,17.20
2007,07,12,04,26,17.30
2007,07,12,04,27,17.30
2007,07,12,04,28,17.30
2007,07,12,04,29,17.30
2007,07,12,04,30,17.30
2007,07,12,04,31,17.30
2007,07,12,04,32,17.30
2007,07,12,04,33,17.30
2007,07,12,04,34,17.30
2007,07,12,04,35,17.20
2007,07,12,04,36,17.20
2007,07,12,04,37,17.20
2007,07,12,04,38,17.10
2007,07,12,04,39,17.10
2007,07,12,04,40,17.10
2007,07,12,04,41,17.10
2007,07,12,04,42,17.00
2007,07,12,04,43,17.10
2007,07,12,04,44,17.00
2007,07,12,04,45,17.00
2007,07,12,04,46,17.00
2007,07,12,04,47,17.10
2007,07,12,04,48,17.10
2007,07,12,04,49,17.10
2007,07,12,04,50,17.10
2007,07,12,04,51,17.10
2007,07,12,04,52,17.20
2007,07,12,04,53,17.20
2007,07,12,04,54,17.20
2007,07,12,04,55,17.20
2007,07,12,04,56,17.20
2007,07,12,04,57,17.20
2007,07,12,04,58,17.20
2007,07,12,04,59,17.20
2007,07,12,05,00,17.20
2007,07,12,05,01,17.20
2007,07,12,05,02,17.10
2007,07,12,05,03,17.10
2007,07,12,05,04,17.10
2007,07,12,05,05,17.00
2007,07,12,05,06,17.00
2007,07,12,05,07,17.00
2007,07,12,05,08,17.00
2007,07,12,05,09,16.90
2007,07,12,05,10,16.90
2007,07,12,05,11,16.90
2007,07,12,05,12,16.80
2007,07,12,05,13,16.80
2007,07,12,05,14,16.80
2007,07,12,05,15,16.70
2007,07,12,05,16,16.70
2007,07,12,05,17,16.70
2007,07,12,05,18,16.70
2007,07,12,05,19,16.70
2007,07,12,05,20,16.70
2007,07,12,05,21,16.60
2007,07,12,05,22,16.60
2007,07,12,05,23,16.60
2007,07,12,05,24,16.50
2007,07,12,05,25,16.40
2007,07,12,05,26,16.40
2007,07,12,05,27,16.40
2007,07,12,05,28,16.40
2007,07,12,05,29,16.40
2007,07,12,05,30,16.40
2007,07,12,05,31,16.40
2007,07,12,05,32,16.40
2007,07,12,05,33,16.40
2007,07,12,05,34,16.30
2007,07,12,05,35,16.30
2007,07,12,05,36,16.30
2007,07,12,05,37,16.30
2007,07,12,05,38,16.30
2007,07,12,05,39,16.30
2007,07,12,05,40,16.30
2007,07,12,05,41,16.30
2007,07,12,05,42,16.30
2007,07,12,05,43,16.30
2007,07,12,05,44,16.30
2007,07,12,05,45,16.30
2007,07,12,05,46,16.30
2007,07,12,05,47,16.30
2007,07,12,05,48,16.30
2007,07,12,05,49,16.30
2007,07,12,05,50,16.40
2007,07,12,05,51,16.40
2007,07,12,05,52,16.40
2007,07,12,05,53,16.40
2007,07,12,05,54,16.40
2007,07,12,05,55,16.40
2007,07,12,05,56,16.40
2007,07,12,05,57,16.30
2007,07,12,05,58,16.30
2007,07,12,05,59,16.30
2007,07,12,06,00,16.30
2007,07,12,06,01,16.20
2007,07,12,06,02,16.10
2007,07,12,06,03,16.10
2007,07,12,06,04,16.00
2007,07,12,06,05,15.90
2007,07,12,06,06,15.90
2007,07,12,06,07,15.80
2007,07,12,06,08,15.70
2007,07,12,06,09,15.60
2007,07,12,06,10,15.60
2007,07,12,06,11,15.50
2007,07,12,06,12,15.50
2007,07,12,06,13,15.50
2007,07,12,06,14,15.40
2007,07,12,06,15,15.30
2007,07,12,06,16,15.30
2007,07,12,06,17,15.30
2007,07,12,06,18,15.20
2007,07,12,06,19,15.20
2007,07,12,06,20,15.20
2007,07,12,06,21,15.10
2007,07,12,06,22,15.10
2007,07,12,06,23,15.00
2007,07,12,06,24,15.00
2007,07,12,06,25,15.00
2007,07,12,06,26,14.90
2007,07,12,06,27,14.90
2007,07,12,06,28,14.90
2007,07,12,06,29,14.90
2007,07,12,06,30,14.80
2007,07,12,06,31,14.80
2007,07,12,06,32,14.80
2007,07,12,06,33,14.80
2007,07,12,06,34,14.80
2007,07,12,06,35,14.80
2007,07,12,06,36,14.80
2007,07,12,06,37,14.80
2007,07,12,06,38,14.80
2007,07,12,06,39,14.80
2007,07,12,06,40,14.80
2007,07,12,06,41,14.80
2007,07,12,06,42,14.80
2007,07,12,06,43,14.80
2007,07,12,06,44,14.80
2007,07,12,06,45,14.80
2007,07,12,06,46,14.80
2007,07,12,06,47,14.80
2007,07,12,06,48,14.80
2007,07,12,06,49,14.80
2007,07,12,06,50,14.80
2007,07,12,06,51,14.80
2007,07,12,06,52,14.80
2007,07,12,06,53,14.80
2007,07,12,06,54,14.80
2007,07,12,06,55,14.80
2007,07,12,06,56,14.90
2007,07,12,06,57,14.90
2007,07,12,06,58,14.90
2007,07,12,06,59,14.90
2007,07,12,07,00,14.90
2007,07,12,07,01,15.00
2007,07,12,07,02,15.00
2007,07,12,07,03,15.00
2007,07,12,07,04,15.10
2007,07,12,07,05,15.10
2007,07,12,07,06,15.10
2007,07,12,07,07,15.10
2007,07,12,07,08,15.10
2007,07,12,07,09,15.20
2007,07,12,07,10,15.20
2007,07,12,07,11,15.20
2007,07,12,07,12,15.20
2007,07,12,07,13,15.20
2007,07,12,07,14,15.20
2007,07,12,07,15,15.20
2007,07,12,07,16,15.30
2007,07,12,07,17,15.30
2007,07,12,07,18,15.30
2007,07,12,07,19,15.30
2007,07,12,07,20,15.40
2007,07,12,07,21,15.40
2007,07,12,07,22,15.50
2007,07,12,07,23,15.50
2007,07,12,07,24,15.60
2007,07,12,07,25,15.60
2007,07,12,07,26,15.70
2007,07,12,07,27,15.70
2007,07,12,07,28,15.80
2007,07,12,07,29,15.80
2007,07,12,07,30,15.90
2007,07,12,07,31,16.00
2007,07,12,07,32,16.10
2007,07,12,07,33,16.10
2007,07,12,07,34,16.10
2007,07,12,07,35,16.10
2007,07,12,07,36,16.10
2007,07,12,07,37,16.10
2007,07,12,07,38,16.10
2007,07,12,07,39,16.10
2007,07,12,07,40,16.10
2007,07,12,07,41,16.20
2007,07,12,07,42,16.10
2007,07,12,07,43,16.10
2007,07,12,07,44,16.20
2007,07,12,07,45,16.10
2007,07,12,07,46,16.20
2007,07,12,07,47,16.20
2007,07,12,07,48,16.20
2007,07,12,07,49,16.20
2007,07,12,07,50,16.20
2007,07,12,07,51,16.20
2007,07,12,07,52,16.20
2007,07,12,07,53,16.20
2007,07,12,07,54,16.20
2007,07,12,07,55,16.10
2007,07,12,07,56,16.10
2007,07,12,07,57,16.10
2007,07,12,07,58,16.10
2007,07,12,07,59,16.10
2007,07,12,08,00,16.10
2007,07,12,08,01,16.10
2007,07,12,08,02,16.10
2007,07,12,08,03,16.10
2007,07,12,08,04,16.10
2007,07,12,08,05,16.10
2007,07,12,08,06,16.10
2007,07,12,08,07,16.00
2007,07,12,08,08,15.90
2007,07,12,08,09,15.90
2007,07,12,08,10,16.00
2007,07,12,08,11,16.10
2007,07,12,08,12,16.10
2007,07,12,08,13,16.10
2007,07,12,08,14,16.10
2007,07,12,08,15,16.20
2007,07,12,08,16,16.20
2007,07,12,08,17,16.30
2007,07,12,08,18,16.30
2007,07,12,08,19,16.30
2007,07,12,08,20,16.30
2007,07,12,08,21,16.30
2007,07,12,08,22,16.30
2007,07,12,08,23,16.30
2007,07,12,08,24,16.40
2007,07,12,08,25,16.40
2007,07,12,08,26,16.50
2007,07,12,08,27,16.60
2007,07,12,08,28,16.70
2007,07,12,08,29,16.60
2007,07,12,08,30,16.60
2007,07,12,08,31,16.60
2007,07,12,08,32,16.60
2007,07,12,08,33,16.60
2007,07,12,08,34,16.70
2007,07,12,08,35,16.70
2007,07,12,08,36,16.80
2007,07,12,08,37,16.90
2007,07,12,08,38,16.90
2007,07,12,08,39,17.10
2007,07,12,08,40,17.20
2007,07,12,08,41,17.30
2007,07,12,08,42,17.50
2007,07,12,08,43,17.50
2007,07,12,08,44,17.60
2007,07,12,08,45,17.60
2007,07,12,08,46,17.60
2007,07,12,08,47,17.70
2007,07,12,08,48,17.70
2007,07,12,08,49,17.70
2007,07,12,08,50,17.70
2007,07,12,08,51,17.60
2007,07,12,08,52,17.50
2007,07,12,08,53,17.60
2007,07,12,08,54,17.60
2007,07,12,08,55,17.50
2007,07,12,08,56,17.60
2007,07,12,08,57,17.50
2007,07,12,08,58,17.40
2007,07,12,08,59,17.40
2007,07,12,09,00,17.30
2007,07,12,09,01,17.30
2007,07,12,09,02,17.30
2007,07,12,09,03,17.30
2007,07,12,09,04,17.40
2007,07,12,09,05,17.40
2007,07,12,09,06,17.40
2007,07,12,09,07,17.40
2007,07,12,09,08,17.50
2007,07,12,09,09,17.60
2007,07,12,09,10,17.60
2007,07,12,09,11,17.60
2007,07,12,09,12,17.70
2007,07,12,09,13,17.70
2007,07,12,09,14,17.80
2007,07,12,09,15,17.80
2007,07,12,09,16,17.80
2007,07,12,09,17,17.80
2007,07,12,09,18,17.80
2007,07,12,09,19,17.80
2007,07,12,09,20,17.70
2007,07,12,09,21,17.70
2007,07,12,09,22,17.70
2007,07,12,09,23,17.70
2007,07,12,09,24,17.80
2007,07,12,09,25,17.90
2007,07,12,09,26,17.90
2007,07,12,09,27,17.90
2007,07,12,09,28,17.90
2007,07,12,09,29,17.90
2007,07,12,09,30,17.90
2007,07,12,09,31,17.90
2007,07,12,09,32,17.90
2007,07,12,09,33,17.90
2007,07,12,09,34,17.80
2007,07,12,09,35,17.80
2007,07,12,09,36,17.80
2007,07,12,09,37,17.80
2007,07,12,09,38,17.90
2007,07,12,09,39,17.90
2007,07,12,09,40,18.00
2007,07,12,09,41,18.10
2007,07,12,09,42,18.20
2007,07,12,09,43,18.20
2007,07,12,09,44,18.20
2007,07,12,09,45,18.20
2007,07,12,09,46,18.20
2007,07,12,09,47,18.20
2007,07,12,09,48,18.20
2007,07,12,09,49,18.20
2007,07,12,09,50,18.20
2007,07,12,09,51,18.10
2007,07,12,09,52,18.00
2007,07,12,09,53,17.90
2007,07,12,09,54,17.90
2007,07,12,09,55,17.90
2007,07,12,09,56,17.90
2007,07,12,09,57,17.90
2007,07,12,09,58,18.00
2007,07,12,09,59,18.10
2007,07,12,10,00,18.10
2007,07,12,10,01,18.20
2007,07,12,10,02,18.20
2007,07,12,10,03,18.30
2007,07,12,10,04,18.40
2007,07,12,10,05,18.40
2007,07,12,10,06,18.60
2007,07,12,10,07,18.70
2007,07,12,10,08,18.80
2007,07,12,10,09,18.80
2007,07,12,10,10,18.90
2007,07,12,10,11,18.70
2007,07,12,10,12,18.70
2007,07,12,10,13,18.70
2007,07,12,10,14,18.70
2007,07,12,10,15,18.70
2007,07,12,10,16,18.70
2007,07,12,10,17,18.70
2007,07,12,10,18,18.80
2007,07,12,10,19,18.80
2007,07,12,10,20,18.80
2007,07,12,10,21,18.80
2007,07,12,10,22,18.80
2007,07,12,10,23,18.80
2007,07,12,10,24,18.80
2007,07,12,10,25,18.80
2007,07,12,10,26,19.00
2007,07,12,10,27,19.10
2007,07,12,10,28,19.30
2007,07,12,10,29,19.30
2007,07,12,10,30,19.50
2007,07,12,10,31,19.60
2007,07,12,10,32,19.60
2007,07,12,10,33,19.70
2007,07,12,10,34,19.60
2007,07,12,10,35,19.70
2007,07,12,10,36,19.70
2007,07,12,10,37,19.70
2007,07,12,10,38,19.60
2007,07,12,10,39,19.50
2007,07,12,10,40,19.50
2007,07,12,10,41,19.50
2007,07,12,10,42,19.60
2007,07,12,10,43,19.70
2007,07,12,10,44,19.70
2007,07,12,10,45,19.70
2007,07,12,10,46,19.80
2007,07,12,10,47,19.80
2007,07,12,10,48,19.90
2007,07,12,10,49,20.00
2007,07,12,10,50,20.10
2007,07,12,10,51,20.10
2007,07,12,10,52,20.10
2007,07,12,10,53,20.00
2007,07,12,10,54,20.10
2007,07,12,10,55,20.10
2007,07,12,10,56,20.00
2007,07,12,10,57,19.90
2007,07,12,10,58,19.90
2007,07,12,10,59,19.90
2007,07,12,11,00,20.10
2007,07,12,11,01,20.20
2007,07,12,11,02,20.30
2007,07,12,11,03,20.20
2007,07,12,11,04,20.20
2007,07,12,11,05,20.20
2007,07,12,11,06,20.20
2007,07,12,11,07,20.20
2007,07,12,11,08,20.20
2007,07,12,11,09,20.10
2007,07,12,11,10,20.10
2007,07,12,11,11,20.00
2007,07,12,11,12,19.90
2007,07,12,11,13,19.90
2007,07,12,11,14,20.00
2007,07,12,11,15,20.10
2007,07,12,11,16,20.10
2007,07,12,11,17,20.20
2007,07,12,11,18,20.20
2007,07,12,11,19,20.30
2007,07,12,11,20,20.40
2007,07,12,11,21,20.40
2007,07,12,11,22,20.50
2007,07,12,11,23,20.50
2007,07,12,11,24,20.60
2007,07,12,11,25,20.60
2007,07,12,11,26,20.70
2007,07,12,11,27,20.70
2007,07,12,11,28,20.90
2007,07,12,11,29,20.80
2007,07,12,11,30,20.70
2007,07,12,11,31,20.60
2007,07,12,11,32,20.60
2007,07,12,11,33,20.70
2007,07,12,11,34,20.80
2007,07,12,11,35,20.80
2007,07,12,11,36,20.80
2007,07,12,11,37,20.80
2007,07,12,11,38,20.80
2007,07,12,11,39,20.80
2007,07,12,11,40,20.80
2007,07,12,11,41,20.80
2007,07,12,11,42,20.70
2007,07,12,11,43,20.70
2007,07,12,11,44,20.70
2007,07,12,11,45,20.70
2007,07,12,11,46,20.70
2007,07,12,11,47,20.90
2007,07,12,11,48,21.00
2007,07,12,11,49,21.00
2007,07,12,11,50,21.10
2007,07,12,11,51,21.20
2007,07,12,11,52,21.20
2007,07,12,11,53,21.30
2007,07,12,11,54,21.20
2007,07,12,11,55,21.20
2007,07,12,11,56,21.10
2007,07,12,11,57,21.20
2007,07,12,11,58,21.10
2007,07,12,11,59,21.10
2007,07,12,12,00,21.20
2007,07,12,12,01,21.10
2007,07,12,12,02,21.20
2007,07,12,12,03,21.20
2007,07,12,12,04,21.20
2007,07,12,12,05,21.20
2007,07,12,12,06,21.20
2007,07,12,12,07,21.30
2007,07,12,12,08,21.30
2007,07,12,12,09,21.50
2007,07,12,12,10,21.60
2007,07,12,12,11,21.70
2007,07,12,12,12,21.80
2007,07,12,12,13,22.00
2007,07,12,12,14,22.10
2007,07,12,12,15,22.10
2007,07,12,12,16,22.00
2007,07,12,12,17,21.90
2007,07,12,12,18,21.80
2007,07,12,12,19,21.90
2007,07,12,12,20,21.90
2007,07,12,12,21,22.00
2007,07,12,12,22,21.90
2007,07,12,12,23,21.80
2007,07,12,12,24,21.80
2007,07,12,12,25,21.80
2007,07,12,12,26,21.70
2007,07,12,12,27,21.70
2007,07,12,12,28,21.80
2007,07,12,12,29,21.80
2007,07,12,12,30,21.80
2007,07,12,12,31,21.80
2007,07,12,12,32,21.80
2007,07,12,12,33,21.80
2007,07,12,12,34,21.60
2007,07,12,12,35,21.60
2007,07,12,12,36,21.60
2007,07,12,12,37,21.70
2007,07,12,12,38,21.60
2007,07,12,12,39,21.70
2007,07,12,12,40,21.70
2007,07,12,12,41,21.70
2007,07,12,12,42,21.80
2007,07,12,12,43,21.90
2007,07,12,12,44,21.90
2007,07,12,12,45,21.80
2007,07,12,12,46,21.80
2007,07,12,12,47,21.90
2007,07,12,12,48,21.90
2007,07,12,12,49,21.90
2007,07,12,12,50,21.90
2007,07,12,12,51,22.00
2007,07,12,12,52,22.10
2007,07,12,12,53,22.20
2007,07,12,12,54,22.30
2007,07,12,12,55,22.30
2007,07,12,12,56,22.40
2007,07,12,12,57,22.50
2007,07,12,12,58,22.50
2007,07,12,12,59,22.60
2007,07,12,13,00,22.70
2007,07,12,13,01,22.70
2007,07,12,13,02,22.80
2007,07,12,13,03,22.80
2007,07,12,13,04,22.80
2007,07,12,13,05,22.80
2007,07,12,13,06,22.80
2007,07,12,13,07,22.90
2007,07,12,13,08,22.90
2007,07,12,13,09,22.90
2007,07,12,13,10,23.10
2007,07,12,13,11,23.10
2007,07,12,13,12,23.20
2007,07,12,13,13,23.30
2007,07,12,13,14,23.30
2007,07,12,13,15,23.30
2007,07,12,13,16,23.40
2007,07,12,13,17,23.40
2007,07,12,13,18,23.30
2007,07,12,13,19,23.30
2007,07,12,13,20,23.40
2007,07,12,13,21,23.40
2007,07,12,13,22,23.60
2007,07,12,13,23,23.70
2007,07,12,13,24,23.70
2007,07,12,13,25,23.60
2007,07,12,13,26,23.50
2007,07,12,13,27,23.40
2007,07,12,13,28,23.20
2007,07,12,13,29,23.10
2007,07,12,13,30,23.00
2007,07,12,13,31,22.90
2007,07,12,13,32,22.90
2007,07,12,13,33,22.90
2007,07,12,13,34,22.80
2007,07,12,13,35,22.80
2007,07,12,13,36,22.70
2007,07,12,13,37,22.60
2007,07,12,13,38,22.60
2007,07,12,13,39,22.30
2007,07,12,13,40,22.30
2007,07,12,13,41,22.30
2007,07,12,13,42,22.30
2007,07,12,13,43,22.20
2007,07,12,13,44,22.20
2007,07,12,13,45,22.20
2007,07,12,13,46,22.20
2007,07,12,13,47,22.20
2007,07,12,13,48,22.20
2007,07,12,13,49,22.10
2007,07,12,13,50,22.10
2007,07,12,13,51,22.00
2007,07,12,13,52,21.90
2007,07,12,13,53,21.80
2007,07,12,13,54,21.60
2007,07,12,13,55,21.60
2007,07,12,13,56,21.60
2007,07,12,13,57,21.60
2007,07,12,13,58,21.60
2007,07,12,13,59,21.60
2007,07,12,14,00,21.60
2007,07,12,14,01,21.60
2007,07,12,14,02,21.40
2007,07,12,14,03,21.40
2007,07,12,14,04,21.40
2007,07,12,14,05,21.40
2007,07,12,14,06,21.30
2007,07,12,14,07,21.30
2007,07,12,14,08,21.30
2007,07,12,14,09,21.30
2007,07,12,14,10,21.30
2007,07,12,14,11,21.30
2007,07,12,14,12,21.30
2007,07,12,14,13,21.30
2007,07,12,14,14,21.30
2007,07,12,14,15,21.30
2007,07,12,14,16,21.30
2007,07,12,14,17,21.30
2007,07,12,14,18,21.30
2007,07,12,14,19,21.40
2007,07,12,14,20,21.40
2007,07,12,14,21,21.40
2007,07,12,14,22,21.40
2007,07,12,14,23,21.40
2007,07,12,14,24,21.40
2007,07,12,14,25,21.40
2007,07,12,14,26,21.40
2007,07,12,14,27,21.30
2007,07,12,14,28,21.30
2007,07,12,14,29,21.30
2007,07,12,14,30,21.30
2007,07,12,14,31,21.30
2007,07,12,14,32,21.30
2007,07,12,14,33,21.30
2007,07,12,14,34,21.30
2007,07,12,14,35,21.30
2007,07,12,14,36,21.30
2007,07,12,14,37,21.30
2007,07,12,14,38,21.30
2007,07,12,14,39,21.30
2007,07,12,14,40,21.30
2007,07,12,14,41,21.30
2007,07,12,14,42,21.30
2007,07,12,14,43,21.30
2007,07,12,14,44,21.30
2007,07,12,14,45,21.30
2007,07,12,14,46,21.30
2007,07,12,14,47,21.30
2007,07,12,14,48,21.30
2007,07,12,14,49,21.30
2007,07,12,14,50,21.20
2007,07,12,14,51,21.10
2007,07,12,14,52,21.10
2007,07,12,14,53,21.00
2007,07,12,14,54,21.00
2007,07,12,14,55,20.90
2007,07,12,14,56,20.90
2007,07,12,14,57,20.80
2007,07,12,14,58,20.80
2007,07,12,14,59,20.70
2007,07,12,15,00,20.60
2007,07,12,15,01,20.60
2007,07,12,15,02,20.60
2007,07,12,15,03,20.60
2007,07,12,15,04,20.60
2007,07,12,15,05,20.60
2007,07,12,15,06,20.60
2007,07,12,15,07,20.70
2007,07,12,15,08,20.80
2007,07,12,15,09,20.80
2007,07,12,15,10,21.00
2007,07,12,15,11,21.00
2007,07,12,15,12,21.10
2007,07,12,15,13,21.20
2007,07,12,15,14,21.30
2007,07,12,15,15,21.30
2007,07,12,15,16,21.30
2007,07,12,15,17,21.60
2007,07,12,15,18,21.60
2007,07,12,15,19,21.60
2007,07,12,15,20,21.70
2007,07,12,15,21,21.80
2007,07,12,15,22,21.80
2007,07,12,15,23,21.80
2007,07,12,15,24,22.00
2007,07,12,15,25,22.10
2007,07,12,15,26,22.20
2007,07,12,15,27,22.30
2007,07,12,15,28,22.40
2007,07,12,15,29,22.40
2007,07,12,15,30,22.60
2007,07,12,15,31,22.70
2007,07,12,15,32,22.80
2007,07,12,15,33,22.90
2007,07,12,15,34,22.90
2007,07,12,15,35,23.00
2007,07,12,15,36,23.10
2007,07,12,15,37,23.20
2007,07,12,15,38,23.30
2007,07,12,15,39,23.30
2007,07,12,15,40,23.40
2007,07,12,15,41,23.50
2007,07,12,15,42,23.30
2007,07,12,15,43,22.80
2007,07,12,15,44,22.30
2007,07,12,15,45,22.00
2007,07,12,15,46,21.80
2007,07,12,15,47,21.70
2007,07,12,15,48,21.60
2007,07,12,15,49,21.70
2007,07,12,15,50,21.70
2007,07,12,15,51,21.80
2007,07,12,15,52,21.90
2007,07,12,15,53,22.00
2007,07,12,15,54,22.10
2007,07,12,15,55,22.20
2007,07,12,15,56,22.40
2007,07,12,15,57,22.50
2007,07,12,15,58,22.60
2007,07,12,15,59,22.60
2007,07,12,16,00,22.70
2007,07,12,16,01,22.70
2007,07,12,16,02,22.70
2007,07,12,16,03,22.70
2007,07,12,16,04,22.70
2007,07,12,16,05,22.60
2007,07,12,16,06,22.40
2007,07,12,16,07,22.00
2007,07,12,16,08,21.90
2007,07,12,16,09,21.70
2007,07,12,16,10,21.60
2007,07,12,16,11,21.60
2007,07,12,16,12,21.40
2007,07,12,16,13,21.30
2007,07,12,16,14,21.30
2007,07,12,16,15,21.40
2007,07,12,16,16,21.40
2007,07,12,16,17,21.50
2007,07,12,16,18,21.60
2007,07,12,16,19,21.60
2007,07,12,16,20,21.60
2007,07,12,16,21,21.70
2007,07,12,16,22,21.90
2007,07,12,16,23,22.00
2007,07,12,16,24,22.00
2007,07,12,16,25,21.90
2007,07,12,16,26,21.90
2007,07,12,16,27,21.80
2007,07,12,16,28,21.80
2007,07,12,16,29,21.70
2007,07,12,16,30,21.70
2007,07,12,16,31,21.80
2007,07,12,16,32,21.80
2007,07,12,16,33,21.90
2007,07,12,16,34,22.00
2007,07,12,16,35,22.10
2007,07,12,16,36,22.20
2007,07,12,16,37,22.40
2007,07,12,16,38,22.50
2007,07,12,16,39,22.60
2007,07,12,16,40,22.70
2007,07,12,16,41,22.80
2007,07,12,16,42,22.90
2007,07,12,16,43,23.10
2007,07,12,16,44,23.30
2007,07,12,16,45,23.60
2007,07,12,16,46,23.80
2007,07,12,16,47,24.00
2007,07,12,16,48,24.10
2007,07,12,16,49,24.10
2007,07,12,16,50,24.10
2007,07,12,16,51,24.20
2007,07,12,16,52,24.20
2007,07,12,16,53,24.30
2007,07,12,16,54,24.30
2007,07,12,16,55,24.20
2007,07,12,16,56,24.10
2007,07,12,16,57,23.80
2007,07,12,16,58,23.60
2007,07,12,16,59,23.60
2007,07,12,17,00,23.30
2007,07,12,17,01,23.20
2007,07,12,17,02,23.20
2007,07,12,17,03,23.10
2007,07,12,17,04,22.90
2007,07,12,17,05,22.70
2007,07,12,17,06,22.70
2007,07,12,17,07,22.60
2007,07,12,17,08,22.60
2007,07,12,17,09,22.50
2007,07,12,17,10,22.40
2007,07,12,17,11,22.30
2007,07,12,17,12,22.30
2007,07,12,17,13,22.30
2007,07,12,17,14,22.40
2007,07,12,17,15,22.40
2007,07,12,17,16,22.60
2007,07,12,17,17,22.70
2007,07,12,17,18,22.80
2007,07,12,17,19,22.90